Regional Weather Roundup
Issued by NWS

Home | Current Version | Previous Version | Graphics & Text | Print | Product List | Glossary On
Versions: 1 2 3 4 5 6 7 8 9 10 11 12 13 14 15 16 17 18 19 20 21 22 23 24 25 26 27 28 29 30 31 32 33 34 35 36 37 38 39 40 41 42 43 44 45 46 47 48 49 50
000
ASUS45 KPSR 190710
RWRAZ

ARIZONA REGIONAL HOURLY WEATHER ROUNDUP
NATIONAL WEATHER SERVICE PHOENIX AZ
1200 AM MST FRI SEP 19 2014

NOTE: FAIR INDICATES FEW OR NO CLOUDS BELOW 12,000 FEET WITH NO
SIGNIFICANT WEATHER AND/OR OBSTRUCTIONS TO VISIBILITY.

AZZ001>003-036-190800-
NORTHWEST ARIZONA

CITY           SKY/WX    TMP DP  RH WIND       PRES   REMARKS
BULLHEAD CITY  CLEAR     88  64  45 SW7       29.68R
KINGMAN        PTCLDY    74  57  55 E13       29.88S
$$

AZZ004>008-015-016-018-190800-
NORTH CENTRAL ARIZONA

CITY           SKY/WX    TMP DP  RH WIND       PRES   REMARKS
GRAND CANYON   MOCLDY    55  51  86 CALM      30.13S
PRESCOTT       CLOUDY    68  58  70 S8        30.03S
FLAGSTAFF      PTCLDY    56  54  93 CALM      30.17S
PAYSON         CLOUDY    66  61  82 CALM      30.06S
PAGE           PTCLDY    79  51  37 SW3       29.90R
$$

AZZ009>014-017-190800-
NORTHEAST ARIZONA

CITY           SKY/WX    TMP DP  RH WIND       PRES   REMARKS
WINSLOW        PTCLDY    70  59  68 SW13      29.99F
SAINT JOHNS    CLEAR     62  56  80 W6        30.06S
SHOW LOW       CLEAR     57  55  94 S9        30.14S
$$

AZZ023-190800-
GREATER PHOENIX AREA

CITY           SKY/WX    TMP DP  RH WIND       PRES   REMARKS
PHOENIX        MOCLDY    87  65  47 SE10      29.75S
BUCKEYE          N/A     82  68  61 S3        29.76S
LUKE AFB       PTCLDY    85  68  55 SE1       29.76R
DEER VALLEY    PTCLDY    84  65  52 CALM      29.78S
SCOTTSDALE     MOCLDY    85  66  53 E3        29.80S
MESA-GATEWAY   MOCLDY    84  68  58 SE8       29.81R
$$

AZZ027-028-190800-
SOUTHWEST MARICOPA COUNTY AND PINAL COUNTY

CITY           SKY/WX    TMP DP  RH WIND       PRES   REMARKS
CASA GRANDE    PTCLDY    82  66  57 CALM      29.80S
$$

AZZ503-504-507>509-190800-
SOUTHEAST ARIZONA

CITY           SKY/WX    TMP DP  RH WIND       PRES   REMARKS
TUCSON         CLOUDY    75  68  78 CALM      29.91R
DAVIS-MONTHAN  MOCLDY    75  70  84 S2        29.89R
NOGALES        PTCLDY    68  66  93 S3        29.98S
DOUGLAS        MOCLDY    67  65  93 S7        29.99S
SAFFORD        MOCLDY    70  66  87 E5        29.92S
$$

AZZ020-021-025-026-031-190800-
SOUTHWEST ARIZONA

CITY           SKY/WX    TMP DP  RH WIND       PRES   REMARKS
YUMA           CLEAR     86  50  28 W8        29.71S
$$

CAZ031-033-041-043-047-048-061-190800-
SOUTHERN CALIFORNIA

CITY           SKY/WX    TMP DP  RH WIND       PRES   REMARKS
DOWNTOWN L.A.  CLEAR     70  61  73 CALM      29.85R
L.A. AIRPORT   PTCLDY    69  61  75 W14       29.86S
SAN DIEGO      CLOUDY    72  65  78 NW6       29.89R
BURBANK        CLEAR     70  61  73 E6        29.86R
ONTARIO        PTCLDY    68  62  81 SW3       29.88S
RIVERSIDE      PTCLDY    68  63  84 VRB3      29.88S
PALM SPRINGS   CLEAR     84  57  39 NW9       29.71R
EL CENTRO NAS  CLEAR     84  58  40 W24       29.70R
IMPERIAL       CLEAR     83  58  42 W15       29.69R
BLYTHE         CLEAR     85  58  39 S14       29.69R
NEEDLES        CLEAR     91  49  23 W9        29.68R
$$

NVZ020-UTZ003-190800-
SOUTHERN NEVADA-UTAH

CITY           SKY/WX    TMP DP  RH WIND       PRES   REMARKS
LAS VEGAS      CLEAR     84  43  23 S14       29.73R
SALT LAKE CITY PTCLDY    67  51  56 N8        29.92R
$$

NMZ009-TXZ055-190800-
NEW MEXICO-WEST TEXAS

CITY           SKY/WX    TMP DP  RH WIND       PRES   REMARKS
ALBUQUERQUE    MOCLDY    67  58  72 CALM      30.08F
EL PASO        CLOUDY    68  64  87 N6        29.96F
$$


........................KEY........................
SKY/WX - SKY CONDITION/WEATHER
TMP    - TEMPERATURE IN FAHRENHEIT
DP     - DEW POINT IN FAHRENHEIT
RH     - RELATIVE HUMIDITY IN PERCENT
WIND   - DIRECTION AND SPEED IN MILES PER HOUR (MPH)
VRB    - VARIABLE WIND DIRECTION
PRES   - MEAN SEA LEVEL PRESSURE IN INCHES OF MERCURY
         F - FALLING PRESSURE   R - RISING PRESSURE
         S - STEADY PRESSURE
VSB    - VISIBILITY IN MILES
HX     - HEAT INDEX IN FAHRENHEIT
WCI    - WIND CHILL INDEX IN FAHRENHEIT
TC     - TEMPERATURE IN CELSIUS WHICH IS ALSO KNOWN AS
         TEMPERATURE IN CENTIGRADE
AFB    - AIR FORCE BASE
         LUKE AFB IS LUKE AIR FORCE BASE
         DAVIS-MONTHAN IS DAVIS-MONTHAN AIR FORCE BASE
NAS    - NAVAL AIR STATION
         EL CENTRO NAS IS EL CENTRO NAVAL AIR STATION
N/A    - NOT AVAILABLE



USA.gov is the U.S. government's official web portal to all federal, state and local government web resources and services.